CAPE
2 2 1 1 1 1 1 0 0 0 0 0 0 0 0 0 0 0 0 0 0 0 0 0 0 0 0 0 0 0 0 0 0 0 0 0 0 0 0 0 0 0 14 82 43
1 2 2 1 1 1 1 0 0 0 0 0 0 0 0 0 0 0 0 0 0 0 0 0 0 0 0 0 0 0 0 0 0 0 0 0 0 0 0 0 0 1 105 63 47
2 1 0 0 0 0 0 0 0 0 0 0 0 0 0 0 0 0 0 0 0 0 0 0 0 0 0 0 0 0 0 0 0 0 0 0 0 0 0 0 0 0 30 66 76
2 1 1 1 0 0 0 0 0 0 0 0 0 0 0 0 0 0 0 0 0 0 0 0 0 0 0 0 0 0 0 0 0 0 0 0 0 0 0 0 0 0 0 7 111
2 1 0 0 0 0 0 0 0 0 0 0 0 0 0 0 0 0 0 0 0 0 0 0 0 0 0 0 0 0 0 0 0 0 0 0 0 0 0 0 0 0 0 0 43
2 1 1 1 0 0 0 0 0 0 0 0 0 0 0 0 0 0 0 0 0 0 0 0 0 0 0 0 0 0 0 0 0 0 0 0 0 0 0 0 0 0 0 0 0
1 1 1 2 0 0 0 0 0 0 0 0 0 0 0 0 0 0 0 0 0 0 0 0 0 0 0 0 0 0 0 0 0 0 0 0 0 0 0 0 0 0 0 0 0
1 1 1 3 2 0 0 0 0 0 0 0 0 0 0 0 0 0 0 0 0 0 0 0 0 0 0 0 0 0 0 0 0 0 0 0 0 0 0 0 0 0 0 0 0
1 2 1 2 2 1 0 0 0 0 0 0 0 0 0 0 0 0 0 0 0 0 0 0 0 0 0 0 0 0 0 0 0 0 0 0 0 0 0 0 0 0 0 0 0
1 1 2 1 1 0 0 0 0 0 0 0 0 0 0 0 0 0 0 0 0 0 0 0 0 0 0 0 0 0 0 0 0 0 0 0 0 0 0 0 0 0 0 0 0
0 0 1 0 0 0 0 0 0 0 0 0 0 0 0 0 0 0 0 0 0 0 0 0 0 0 0 0 0 0 0 0 0 0 0 0 0 0 0 0 0 0 0 0 0
0 0 1 0 0 0 0 0 0 0 0 0 0 0 0 0 0 0 0 0 0 0 0 0 0 0 0 0 0 0 0 0 0 0 0 0 0 0 0 0 0 0 0 0 0
0 0 0 0 0 0 0 0 0 0 0 0 0 0 0 0 0 0 0 0 0 0 0 0 0 0 0 0 0 0 0 0 0 0 0 0 0 0 0 0 0 0 0 0 0
0 0 0 0 0 0 0 0 0 0 0 0 0 0 0 0 0 0 0 0 0 0 0 0 0 0 0 0 0 0 0 0 0 0 0 0 0 0 0 0 0 0 0 0 0
0 0 0 0 0 0 0 0 0 0 0 0 0 0 0 0 0 0 0 0 0 0 0 0 0 0 0 1 3 1 2 0 0 0 0 0 0 0 0 0 0 0 0 0 0
0 0 0 0 0 0 0 0 0 0 0 0 0 0 0 0 0 0 0 0 0 0 0 0 0 6 3 2 6 9 2 0 0 0 0 0 0 0 0 0 0 0 0 0 0
0 0 0 0 0 0 0 0 0 2 0 0 0 0 0 0 0 0 0 0 0 0 0 0 0 0 27 5 6 4 1 0 0 0 0 0 0 0 0 0 0 0 0 0 0
0 0 0 0 0 0 0 0 0 1 0 0 0 0 0 0 0 0 0 0 2 0 0 0 0 0 2 16 0 0 9 0 0 0 0 2 0 0 0 0 0 0 0 0 0
0 0 0 0 0 0 0 0 0 0 0 0 0 0 0 0 0 0 0 0 2 4 0 0 0 0 0 6 5 1 0 8 0 2 0 0 0 0 0 0 0 0 0 0 0
0 0 0 0 0 0 0 0 2 0 0 0 0 1 0 0 0 0 0 0 0 0 0 0 0 0 0 0 0 3 0 0 5 0 0 0 0 0 1 0 0 0 0 0 0
0 0 0 0 0 0 0 0 1 0 0 0 0 4 0 2 0 0 0 0 1 0 0 0 0 0 0 0 0 2 21 19 1 14 6 0 0 19 0 0 0 0 0 0 0
0 0 0 0 0 0 0 15 0 0 0 0 6 2 9 3 2 0 0 6 9 0 0 0 0 0 0 0 0 1 40 1 0 0 4 3 0 0 0 0 0 0 0 0 0
0 0 0 0 0 0 0 0 0 9 2 0 0 0 0 0 0 0 0 2 0 0 0 0 0 0 0 0 0 0 0 0 0 0 0 3 0 0 0 0 0 0 0 0 0
0 0 0 0 0 0 0 0 0 6 9 0 0 0 7 3 4 2 0 0 1 9 2 2 0 0 0 0 0 0 0 0 1 0 0 0 3 0 0 0 0 0 0 0 0
0 0 0 0 0 0 0 0 0 0 0 0 0 0 2 0 0 0 0 0 1 26 1 0 0 0 0 0 0 3 1 0 0 0 0 0 2 0 0 0 0 0 0 0 0
0 0 0 0 0 0 0 0 0 0 0 0 0 0 0 0 0 0 2 0 0 0 1 2 0 0 0 0 0 0 0 0 0 0 2 2 1 0 0 0 0 0 0 0 0
1 0 2 0 0 0 0 0 0 0 0 0 0 0 0 0 0 0 0 0 0 0 0 0 0 1 0 0 0 0 0 13 31 67 1 14 16 0 0 0 0 0 0 0 0
CIN
-0 -0 -0 0 -0 0 -0 -0 0 0 0 0 0 0 0 0 0 0 0 0 0 0 0 0 0 0 0 0 0 0 0 0 0 0 0 0 0 0 0 0 0 0 -62 -81 -132
-0 0 0 -0 0 -0 0 0 0 0 0 0 0 0 0 0 0 0 0 0 0 0 0 0 0 0 0 0 0 0 0 0 0 0 0 0 0 0 0 0 0 -2 -40 -77 -147
-0 -0 -0 0 0 0 0 0 0 0 0 0 0 0 0 0 0 0 0 0 0 0 0 0 0 0 0 0 0 0 0 0 0 0 0 0 0 0 0 0 0 0 -35 -29 -154
-0 -0 -0 -0 -0 0 0 0 0 0 0 0 0 0 0 0 0 0 0 0 0 0 0 0 0 0 0 0 0 0 0 0 0 0 0 0 0 0 0 0 0 0 0 -31 -42
-0 0 0 -0 0 0 0 0 0 0 0 0 0 0 0 0 0 0 0 0 0 0 0 0 0 0 0 0 0 0 0 0 0 0 0 0 0 0 0 0 0 0 0 0 -30
-0 0 0 -0 0 0 0 0 0 0 0 0 0 0 0 0 0 0 0 0 0 0 0 0 0 0 0 0 0 0 0 0 0 0 0 0 0 0 0 0 0 0 0 0 0
0 -0 0 -0 0 0 0 0 0 0 0 0 0 0 0 0 0 0 0 0 0 0 0 0 0 0 0 0 0 0 0 0 0 0 0 0 0 0 0 0 0 0 0 0 0
0 0 -0 0 0 0 0 0 0 0 0 0 0 0 0 0 0 0 0 0 0 0 0 0 0 0 0 0 0 0 0 0 0 0 0 0 0 0 0 0 0 0 0 0 0
-0 -0 0 0 0 0 0 0 0 0 0 0 0 0 0 0 0 0 0 0 0 0 0 0 0 0 0 0 0 0 0 0 0 0 0 0 0 0 0 0 0 0 0 0 0
0 0 0 -0 0 0 0 0 0 0 0 0 0 0 0 0 0 0 0 0 0 0 0 0 0 0 0 0 0 0 0 0 0 0 0 0 0 0 0 0 0 0 0 0 0
-0 0 0 0 0 0 0 0 0 0 0 0 0 0 0 0 0 0 0 0 0 0 0 0 0 0 0 0 0 0 0 0 0 0 0 0 0 0 0 0 0 0 0 0 0
0 0 0 0 0 0 0 0 0 0 0 0 0 0 0 0 0 0 0 0 0 0 0 0 0 0 0 0 0 0 0 0 0 0 0 0 0 0 0 0 0 0 0 0 0
0 0 0 0 0 0 0 0 0 0 0 0 0 0 0 0 0 0 0 0 0 0 0 0 0 0 0 0 0 0 0 0 0 0 0 0 0 0 0 0 0 0 0 0 0
0 0 0 0 0 0 0 0 0 0 0 0 0 0 0 0 0 0 0 0 0 0 0 0 0 0 0 0 0 0 0 0 0 0 0 0 0 0 0 0 0 0 0 0 0
0 0 0 0 0 0 0 0 0 0 0 0 0 0 0 0 0 0 0 0 0 0 0 0 0 0 0 -21 -48 -23 -26 0 -7 0 0 0 0 0 0 0 0 0 0 0 0
0 0 0 0 0 0 0 0 0 0 0 0 0 0 0 0 0 0 0 0 0 0 0 0 0 -9 -31 -50 -44 -35 -16 0 0 0 0 0 0 0 0 0 0 0 0 0 0
0 0 0 0 0 0 0 0 0 -27 -1 0 0 0 0 0 0 0 0 0 0 0 0 0 0 -5 -27 -23 -47 -25 -25 0 0 0 0 0 0 0 0 0 0 0 0 0 0
0 0 0 0 0 0 0 0 0 -2 0 0 0 0 0 0 0 0 0 0 -11 0 0 0 0 0 -27 -23 0 0 -28 0 0 0 0 -14 0 0 0 0 0 0 0 0 0
0 0 0 0 0 0 0 0 0 0 0 0 0 0 0 0 0 0 0 0 -12 -14 -2 -1 0 0 0 -16 -17 -1 0 -31 -4 -57 0 0 0 0 0 -10 0 0 0 0 0
0 0 0 0 0 0 0 0 -14 0 0 0 0 -0 0 0 0 -14 0 0 0 -6 0 0 0 0 0 -15 -4 -22 -10 0 -22 -0 0 0 0 0 -30 0 0 0 0 0 0
0 0 0 0 0 0 0 0 -6 0 0 0 0 -3 -0 -5 0 0 0 0 -8 0 0 0 0 0 0 0 0 -14 -16 -27 -25 -37 -13 0 0 -106 -26 0 0 0 0 0 0
0 0 0 0 0 0 -1 -1 0 0 0 0 -3 -12 -1 -5 -4 0 0 -3 -28 0 0 0 0 0 0 0 0 -15 -25 -47 0 0 -7 -6 0 -4 0 0 0 0 0 0 0
0 0 0 0 0 0 0 0 0 -5 -10 0 0 0 0 0 -0 0 0 -3 -2 0 0 0 0 0 0 0 0 0 0 -21 -3 0 0 -12 0 -12 0 0 0 0 0 0 0
0 0 0 0 0 0 0 0 0 -2 -7 0 0 0 -1 -0 -2 -1 0 0 -3 -9 -16 -0 0 0 0 0 0 0 0 0 -29 0 0 0 -9 0 0 0 0 0 0 0 0
0 0 0 0 0 0 0 0 0 0 -0 0 0 0 -4 0 0 0 0 0 -3 -2 -1 -0 0 0 0 0 -0 -1 -2 0 0 -40 -3 0 -8 0 0 0 0 0 0 0 0
0 0 0 0 0 0 0 0 0 0 0 0 -0 0 0 0 0 -0 -0 0 0 0 0 -0 0 0 -3 0 0 0 0 0 0 0 -23 -50 -11 0 0 0 0 0 0 0 0
-8 -1 -0 0 0 0 0 0 0 -0 0 0 -0 0 0 0 -1 0 0 0 0 0 0 0 0 -1 0 0 -3 0 0 -30 -22 -5 -4 -38 -23 -0 0 0 0 0 0 0 0
Wind_Speed
30 30 29 29 29 29 29 29 29 29 29 30 31 32 33 34 35 31 28 23 22 27 29 30 29 27 28 30 31 30 38 44 41 39 42 39 36 35 33 32 29 28 22 15 4
30 29 29 29 29 29 29 29 29 29 29 30 30 31 32 32 31 26 20 19 22 24 25 26 27 25 24 26 27 28 45 51 40 39 44 42 40 38 35 34 32 26 11 9 11
30 30 30 30 30 30 30 30 30 30 30 30 31 31 31 30 24 18 11 18 22 21 22 24 26 28 31 27 29 33 48 40 43 42 44 45 44 38 37 39 33 31 19 17 4
31 30 30 31 31 31 32 32 31 31 31 31 32 31 31 21 23 14 14 17 19 20 22 22 22 26 29 32 31 38 41 43 48 51 50 50 46 48 43 41 39 38 26 25 14
29 30 31 31 31 32 32 32 32 31 31 31 32 30 25 21 23 12 14 17 21 20 22 26 27 28 34 30 31 44 45 45 46 46 49 53 53 49 51 44 42 41 35 29 28
25 26 27 29 30 32 33 33 33 33 32 32 31 28 20 23 18 12 16 19 19 22 23 26 25 29 31 35 37 37 43 44 46 47 43 46 55 47 51 45 43 43 41 34 28
18 24 26 27 25 28 31 31 32 32 33 31 27 22 21 15 20 21 22 24 27 24 24 23 27 27 31 34 32 36 43 45 46 43 45 39 49 55 50 48 48 46 42 40 31
26 23 24 23 22 24 24 24 25 24 29 28 19 19 19 16 12 19 24 27 24 26 26 27 21 25 30 32 36 37 39 44 34 38 46 39 56 51 44 46 50 50 48 48 39
32 30 29 27 24 23 21 21 19 17 5 13 16 14 21 10 16 19 25 24 26 27 26 24 20 24 29 34 38 31 44 43 46 37 38 33 56 55 47 47 49 52 55 53 54
37 36 33 30 27 25 22 17 8 13 8 10 8 15 15 17 19 24 24 21 27 26 26 24 21 24 27 29 38 36 40 40 44 37 38 41 47 52 48 48 51 46 49 52 54
39 37 37 33 29 28 29 23 23 18 14 8 7 7 30 21 20 22 21 24 26 28 30 29 33 33 31 32 35 38 42 44 44 37 40 43 45 50 43 46 48 51 45 45 48
40 38 36 33 29 27 19 20 26 21 26 2 6 6 4 16 18 20 21 24 29 31 32 31 33 31 36 36 37 40 45 47 45 41 42 47 49 52 48 47 44 46 46 47 45
43 41 39 33 28 20 15 19 26 26 23 22 7 10 11 16 17 17 17 21 27 30 30 35 36 37 38 40 41 41 44 43 47 41 43 45 53 55 53 48 47 45 43 40 40
42 42 40 36 24 24 21 25 28 25 21 14 12 13 16 16 16 11 13 16 24 28 28 29 33 35 37 39 39 46 41 46 47 45 52 36 60 50 55 52 46 46 45 43 39
25 22 31 29 21 21 26 26 25 18 21 13 12 12 15 15 18 25 9 16 22 22 24 30 32 36 37 36 38 43 42 43 46 49 49 45 50 53 45 54 52 49 44 45 44
20 19 28 15 13 13 29 28 22 18 18 15 15 16 15 20 24 19 17 11 17 21 24 29 26 30 31 36 37 41 41 44 46 44 54 47 44 60 51 51 52 50 46 46 47
24 19 4 8 11 25 27 23 18 15 15 17 22 28 32 28 22 16 19 22 25 28 29 29 30 28 26 36 36 35 35 42 44 46 54 43 45 52 43 44 47 48 51 46 43
22 11 11 10 7 10 21 18 18 19 22 26 29 31 25 28 24 26 26 27 25 26 29 32 35 27 22 27 30 31 32 32 37 40 43 41 47 51 44 45 46 46 47 47 46
13 14 15 15 11 13 16 18 16 24 26 28 31 27 26 30 27 27 25 22 23 29 29 31 24 23 13 12 18 23 29 28 31 37 37 38 45 48 46 38 38 42 41 43 45
16 18 18 15 15 15 17 17 17 23 28 28 26 23 30 32 28 26 22 21 32 28 32 28 35 24 29 35 34 20 27 30 22 33 38 36 40 37 33 36 38 40 43 44 44
19 19 18 15 16 16 17 16 19 24 20 22 22 23 26 26 25 21 16 31 30 30 30 28 8 22 34 23 10 16 29 29 30 28 34 37 29 23 32 35 40 42 42 41 38
17 21 17 16 18 16 15 18 28 30 26 23 19 21 24 23 20 16 13 20 23 26 25 22 12 14 18 25 10 8 28 30 30 29 24 32 38 29 30 34 38 42 41 39 37
18 16 16 18 20 19 17 18 9 17 22 20 20 21 18 16 16 18 22 22 24 25 13 15 14 11 7 17 15 18 23 23 25 25 34 37 34 33 33 33 40 37 40 36 37
19 21 19 15 20 23 18 17 13 15 20 26 14 14 14 12 15 10 26 16 4 8 11 12 10 7 9 10 14 15 40 34 32 36 40 39 40 36 32 34 33 27 31 33 34
21 23 21 18 17 15 13 13 14 16 20 24 19 18 22 17 31 27 30 21 12 16 17 13 12 10 14 14 14 14 38 44 45 43 41 40 39 38 32 29 25 23 29 31 31
25 23 21 15 15 15 14 20 18 16 14 17 14 16 17 4 30 27 28 26 14 22 16 13 12 12 12 10 9 11 15 35 39 42 42 41 40 40 28 28 25 26 34 34 31
23 21 21 19 19 17 22 19 14 13 15 12 9 11 6 7 33 35 31 24 19 8 16 17 19 16 16 17 11 5 7 4 32 36 39 40 37 30 32 30 31 31 33 31 26
Wind_Direction
328 324 321 318 317 316 316 315 312 309 307 303 302 301 303 302 295 294 289 296 298 295 291 286 284 281 275 269 266 266 265 260 258 262 258 260 268 273 280 285 276 268 285 281 276
328 325 322 318 314 314 312 310 310 309 305 303 300 301 304 305 297 293 304 305 300 301 297 286 280 283 276 273 269 262 258 252 262 267 263 265 269 273 283 285 273 264 294 294 286
330 324 322 320 317 313 308 305 304 303 303 302 302 302 304 306 304 317 339 318 308 308 299 290 283 281 274 273 267 265 260 266 264 266 266 267 267 275 278 274 277 265 284 287 286
325 318 315 313 313 311 311 309 305 302 302 301 304 306 303 322 296 334 344 331 319 311 302 297 291 280 278 271 273 268 266 266 264 263 266 265 271 268 269 272 274 262 280 288 271
313 313 312 308 304 301 300 301 299 297 298 300 306 310 320 311 302 350 342 332 317 316 303 296 291 285 275 279 275 266 267 268 266 266 265 265 265 267 265 270 271 264 269 286 274
304 300 298 298 297 299 299 297 298 301 302 302 305 312 322 303 332 352 337 326 323 312 309 298 295 292 285 279 276 279 276 273 270 268 269 267 264 267 262 267 271 266 264 271 287
296 298 296 292 285 286 287 286 290 290 292 303 313 323 316 318 322 321 315 316 307 308 308 306 297 296 291 287 284 285 277 275 271 272 270 277 268 260 264 265 267 267 267 264 275
305 298 296 289 283 280 275 271 269 266 284 308 335 331 316 332 346 322 323 310 313 312 305 303 305 299 290 289 284 283 280 273 278 276 271 274 266 264 269 267 264 265 262 261 266
312 307 304 296 286 280 273 266 255 245 205 11 351 355 321 14 332 335 328 319 315 312 309 308 308 300 296 287 283 282 273 276 275 279 279 273 265 264 268 268 268 264 260 261 260
321 315 307 301 292 285 278 264 220 24 59 61 41 348 345 335 336 329 329 330 317 316 312 309 304 297 297 287 279 282 277 278 275 281 279 274 271 266 268 268 265 267 262 260 259
323 314 312 304 296 297 334 6 8 9 25 13 23 1 288 334 346 337 339 332 325 317 308 311 296 290 292 290 285 283 279 279 279 287 285 278 277 271 276 271 267 263 267 264 262
323 315 311 305 297 295 9 9 348 352 334 158 200 206 8 347 338 344 346 335 324 315 312 309 298 299 297 293 289 284 281 278 281 288 284 278 277 274 274 274 274 270 266 265 266
330 321 318 307 297 8 21 2 350 345 343 344 47 35 23 358 346 350 360 350 335 323 317 307 303 304 298 294 291 287 284 285 282 287 283 282 277 272 269 274 274 272 276 267 265
320 323 320 314 342 349 359 339 339 349 344 8 21 17 9 3 351 19 10 2 347 332 327 321 314 306 300 295 295 286 288 283 284 283 275 285 274 274 270 271 273 273 273 272 272
304 301 301 334 351 351 344 340 345 4 341 7 17 24 9 6 354 343 27 354 340 337 331 321 316 308 303 302 305 291 298 287 285 282 280 276 276 274 277 271 269 271 275 273 272
307 297 295 28 24 12 323 326 342 352 351 354 7 360 359 346 337 348 351 354 341 334 332 327 329 319 310 308 304 299 295 290 283 281 272 275 277 272 274 273 273 271 272 273 273
309 294 299 65 58 351 334 340 352 359 11 4 340 331 330 336 343 349 352 349 339 332 331 332 331 339 332 311 307 303 300 285 278 273 273 279 276 273 278 276 275 275 269 271 277
313 292 74 98 93 48 8 10 349 350 347 334 329 328 339 343 346 341 344 341 347 347 334 329 323 342 350 327 314 307 300 282 279 280 280 287 278 277 282 285 284 280 274 270 274
325 69 72 83 98 61 44 11 7 347 340 333 325 335 338 336 349 345 343 349 352 342 338 332 334 345 358 340 328 309 297 292 285 287 287 288 289 285 285 287 292 287 284 274 273
47 64 67 90 71 56 45 27 17 4 339 336 343 342 337 337 343 344 349 346 322 339 338 336 287 338 338 316 297 308 300 296 294 288 288 294 290 285 296 295 297 292 283 274 274
60 56 57 67 56 53 44 30 5 358 2 355 349 347 346 347 349 351 354 302 320 335 339 343 329 280 324 339 254 280 301 295 298 297 289 295 294 313 307 302 297 291 289 275 274
59 52 68 59 47 45 32 13 356 346 348 352 3 357 354 355 356 2 231 255 358 352 350 353 344 284 264 259 276 270 302 288 285 292 296 297 288 306 307 306 298 285 283 272 272
50 58 62 56 42 32 27 21 30 359 6 5 1 1 4 7 11 300 259 343 352 351 16 11 1 293 303 357 352 327 309 309 289 302 277 283 276 309 293 296 298 278 266 266 275
47 41 47 48 39 29 25 28 22 27 19 1 16 17 11 7 277 276 271 0 336 343 7 7 6 335 298 292 329 272 284 284 280 279 266 256 267 272 271 296 297 265 245 254 262
42 39 37 29 29 22 26 30 27 21 14 5 6 7 356 360 293 268 282 275 261 5 8 359 333 323 284 276 270 273 261 263 265 264 253 260 266 267 264 300 293 255 246 247 259
36 34 31 26 30 32 27 32 28 25 18 10 15 7 359 318 267 265 275 275 279 358 6 24 15 352 319 304 265 246 232 254 269 263 255 255 260 268 243 281 264 253 235 247 252
36 36 33 33 31 30 30 25 20 23 30 15 357 351 327 242 273 280 268 259 257 2 22 23 14 10 7 13 14 37 29 206 284 275 262 259 272 276 263 258 254 244 244 258 249